owner,sensor,date,latitude,longitude,vertical_datum,sea_water_temperature,qcFlag 
TABS,ioos:station:TABS:A:1,1996-10-01T00:00:00Z,29.5325,-93.8116,-2.0,25.34,11111222 
TABS,ioos:station:TABS:A:1,1996-10-02T14:00:00Z,29.5325,-93.8116,-2.0,25.34,11111222 
TABS,ioos:station:TABS:A:1,1996-10-02T14:30:00Z,29.5325,-93.8116,-2.0,25.28,11111222 
TABS,ioos:station:TABS:A:1,1996-10-02T15:00:00Z,29.5325,-93.8116,-2.0,25.28,11111222 
TABS,ioos:station:TABS:A:1,1996-10-02T15:30:00Z,29.5325,-93.8116,-2.0,25.26,11111222 
TABS,ioos:station:TABS:A:1,1996-10-02T16:00:00Z,29.5325,-93.8116,-2.0,25.26,11111222 
TABS,ioos:station:TABS:A:1,1996-10-02T16:30:00Z,29.5325,-93.8116,-2.0,25.28,11111222 
TABS,ioos:station:TABS:A:1,1996-10-02T17:00:00Z,29.5325,-93.8116,-2.0,25.26,11111222 
TABS,ioos:station:TABS:A:1,1996-10-02T17:30:00Z,29.5325,-93.8116,-2.0,25.26,11111222 
TABS,ioos:station:TABS:A:1,1996-10-02T18:00:00Z,29.5325,-93.8116,-2.0,25.28,11111222 
TABS,ioos:station:TABS:A:1,1996-10-02T18:30:00Z,29.5325,-93.8116,-2.0,25.32,11111222 
TABS,ioos:station:TABS:A:1,1996-10-02T19:00:00Z,29.5325,-93.8116,-2.0,25.36,11111222 
TABS,ioos:station:TABS:A:1,1996-10-02T19:30:00Z,29.5325,-93.8116,-2.0,25.42,11111222 
TABS,ioos:station:TABS:A:1,1996-10-02T20:00:00Z,29.5325,-93.8116,-2.0,25.46,11111222 
TABS,ioos:station:TABS:A:1,1996-10-02T20:30:00Z,29.5325,-93.8116,-2.0,25.44,11111222 
TABS,ioos:station:TABS:A:1,1996-10-02T21:00:00Z,29.5325,-93.8116,-2.0,25.48,11111222 
TABS,ioos:station:TABS:A:1,1996-10-02T21:30:00Z,29.5325,-93.8116,-2.0,25.54,11111222 
TABS,ioos:station:TABS:A:1,1996-10-02T22:00:00Z,29.5325,-93.8116,-2.0,25.56,11111222 
TABS,ioos:station:TABS:A:1,1996-10-02T22:30:00Z,29.5325,-93.8116,-2.0,25.56,11111222 
TABS,ioos:station:TABS:A:1,1996-10-02T23:00:00Z,29.5325,-93.8116,-2.0,25.56,11111222 
TABS,ioos:station:TABS:A:1,1996-10-02T23:30:00Z,29.5325,-93.8116,-2.0,25.6,11111222 
TABS,ioos:station:TABS:A:1,1996-10-03T00:00:00Z,29.5325,-93.8116,-2.0,25.56,11111222 
TABS,ioos:station:TABS:A:1,1996-10-03T00:30:00Z,29.5325,-93.8116,-2.0,25.54,11111222 
TABS,ioos:station:TABS:A:1,1996-10-03T01:00:00Z,29.5325,-93.8116,-2.0,25.5,11111222 
TABS,ioos:station:TABS:A:1,1996-10-03T01:30:00Z,29.5325,-93.8116,-2.0,25.48,11111222 
TABS,ioos:station:TABS:A:1,1996-10-03T02:00:00Z,29.5325,-93.8116,-2.0,25.44,11111222 
TABS,ioos:station:TABS:A:1,1996-10-03T02:30:00Z,29.5325,-93.8116,-2.0,25.4,11111222 
TABS,ioos:station:TABS:A:1,1996-10-03T03:00:00Z,29.5325,-93.8116,-2.0,25.38,11111222 
TABS,ioos:station:TABS:A:1,1996-10-03T03:30:00Z,29.5325,-93.8116,-2.0,25.38,11111222 
TABS,ioos:station:TABS:A:1,1996-10-03T04:00:00Z,29.5325,-93.8116,-2.0,25.34,11111222 
TABS,ioos:station:TABS:A:1,1996-10-03T04:30:00Z,29.5325,-93.8116,-2.0,25.32,11111222 
TABS,ioos:station:TABS:A:1,1996-10-03T05:00:00Z,29.5325,-93.8116,-2.0,25.3,11111222 
TABS,ioos:station:TABS:A:1,1996-10-03T05:30:00Z,29.5325,-93.8116,-2.0,25.28,11111222 
TABS,ioos:station:TABS:A:1,1996-10-03T06:00:00Z,29.5325,-93.8116,-2.0,25.16,11111222 
TABS,ioos:station:TABS:A:1,1996-10-03T06:30:00Z,29.5325,-93.8116,-2.0,25.16,11111222 
TABS,ioos:station:TABS:A:1,1996-10-03T07:00:00Z,29.5325,-93.8116,-2.0,25.16,11111222 
TABS,ioos:station:TABS:A:1,1996-10-03T07:30:00Z,29.5325,-93.8116,-2.0,25.16,11111222 
TABS,ioos:station:TABS:A:1,1996-10-03T08:00:00Z,29.5325,-93.8116,-2.0,25.14,11111222 
TABS,ioos:station:TABS:A:1,1996-10-03T08:30:00Z,29.5325,-93.8116,-2.0,25.14,11111222 
TABS,ioos:station:TABS:A:1,1996-10-03T09:00:00Z,29.5325,-93.8116,-2.0,25.16,11111222 
TABS,ioos:station:TABS:A:1,1996-10-03T09:30:00Z,29.5325,-93.8116,-2.0,25.18,11111222 
TABS,ioos:station:TABS:A:1,1996-10-03T10:00:00Z,29.5325,-93.8116,-2.0,25.18,11111222 
TABS,ioos:station:TABS:A:1,1996-10-03T10:30:00Z,29.5325,-93.8116,-2.0,25.2,11111222 
TABS,ioos:station:TABS:A:1,1996-10-03T11:00:00Z,29.5325,-93.8116,-2.0,25.22,11111222 
TABS,ioos:station:TABS:A:1,1996-10-03T11:30:00Z,29.5325,-93.8116,-2.0,25.22,11111222 
TABS,ioos:station:TABS:A:1,1996-10-03T12:00:00Z,29.5325,-93.8116,-2.0,25.22,11111222 
TABS,ioos:station:TABS:A:1,1996-10-03T12:30:00Z,29.5325,-93.8116,-2.0,25.24,11111222 
TABS,ioos:station:TABS:A:1,1996-10-03T13:00:00Z,29.5325,-93.8116,-2.0,25.24,11111222 
TABS,ioos:station:TABS:A:1,1996-10-03T13:30:00Z,29.5325,-93.8116,-2.0,25.26,11111222 
TABS,ioos:station:TABS:A:1,1996-10-03T14:00:00Z,29.5325,-93.8116,-2.0,25.24,11111222 
TABS,ioos:station:TABS:A:1,1996-10-03T14:30:00Z,29.5325,-93.8116,-2.0,25.24,11111222 
TABS,ioos:station:TABS:A:1,1996-10-03T15:00:00Z,29.5325,-93.8116,-2.0,25.26,11111222 
TABS,ioos:station:TABS:A:1,1996-10-03T15:30:00Z,29.5325,-93.8116,-2.0,25.26,11111222 
TABS,ioos:station:TABS:A:1,1996-10-03T16:00:00Z,29.5325,-93.8116,-2.0,25.3,11111222 
TABS,ioos:station:TABS:A:1,1996-10-03T16:30:00Z,29.5325,-93.8116,-2.0,25.32,11111222 
TABS,ioos:station:TABS:A:1,1996-10-03T17:00:00Z,29.5325,-93.8116,-2.0,25.32,11111222 
TABS,ioos:station:TABS:A:1,1996-10-03T17:30:00Z,29.5325,-93.8116,-2.0,25.34,11111222 
TABS,ioos:station:TABS:A:1,1996-10-03T18:00:00Z,29.5325,-93.8116,-2.0,25.3,11111222 
TABS,ioos:station:TABS:A:1,1996-10-03T18:30:00Z,29.5325,-93.8116,-2.0,25.34,11111222 
TABS,ioos:station:TABS:A:1,1996-10-03T19:00:00Z,29.5325,-93.8116,-2.0,25.36,11111222 
TABS,ioos:station:TABS:A:1,1996-10-03T19:30:00Z,29.5325,-93.8116,-2.0,25.4,11111222 
TABS,ioos:station:TABS:A:1,1996-10-03T20:00:00Z,29.5325,-93.8116,-2.0,25.42,11111222 
TABS,ioos:station:TABS:A:1,1996-10-03T20:30:00Z,29.5325,-93.8116,-2.0,25.44,11111222 
TABS,ioos:station:TABS:A:1,1996-10-03T21:00:00Z,29.5325,-93.8116,-2.0,25.46,11111222 
TABS,ioos:station:TABS:A:1,1996-10-03T21:30:00Z,29.5325,-93.8116,-2.0,25.46,11111222 
TABS,ioos:station:TABS:A:1,1996-10-03T22:00:00Z,29.5325,-93.8116,-2.0,25.48,11111222 
TABS,ioos:station:TABS:A:1,1996-10-03T22:30:00Z,29.5325,-93.8116,-2.0,25.5,11111222 
TABS,ioos:station:TABS:A:1,1996-10-03T23:00:00Z,29.5325,-93.8116,-2.0,25.48,11111222 
TABS,ioos:station:TABS:A:1,1996-10-03T23:30:00Z,29.5325,-93.8116,-2.0,25.44,11111222 
TABS,ioos:station:TABS:A:1,1996-10-04T00:00:00Z,29.5325,-93.8116,-2.0,25.44,11111222 
TABS,ioos:station:TABS:A:1,1996-10-04T00:30:00Z,29.5325,-93.8116,-2.0,25.46,11111222 
TABS,ioos:station:TABS:A:1,1996-10-04T01:00:00Z,29.5325,-93.8116,-2.0,25.48,11111222 
TABS,ioos:station:TABS:A:1,1996-10-04T01:30:00Z,29.5325,-93.8116,-2.0,25.5,11111222 
TABS,ioos:station:TABS:A:1,1996-10-04T02:00:00Z,29.5325,-93.8116,-2.0,25.54,11111222 
TABS,ioos:station:TABS:A:1,1996-10-04T02:30:00Z,29.5325,-93.8116,-2.0,25.54,11111222 
TABS,ioos:station:TABS:A:1,1996-10-04T03:00:00Z,29.5325,-93.8116,-2.0,25.54,11111222 
TABS,ioos:station:TABS:A:1,1996-10-04T03:30:00Z,29.5325,-93.8116,-2.0,25.54,11111222 
TABS,ioos:station:TABS:A:1,1996-10-04T04:00:00Z,29.5325,-93.8116,-2.0,25.54,11111222 
TABS,ioos:station:TABS:A:1,1996-10-04T04:30:00Z,29.5325,-93.8116,-2.0,25.52,11111222 
TABS,ioos:station:TABS:A:1,1996-10-04T05:00:00Z,29.5325,-93.8116,-2.0,25.52,11111222 
TABS,ioos:station:TABS:A:1,1996-10-04T05:30:00Z,29.5325,-93.8116,-2.0,25.52,11111222 
TABS,ioos:station:TABS:A:1,1996-10-04T06:00:00Z,29.5325,-93.8116,-2.0,25.5,11111222 
TABS,ioos:station:TABS:A:1,1996-10-04T06:30:00Z,29.5325,-93.8116,-2.0,25.48,11111222 
TABS,ioos:station:TABS:A:1,1996-10-04T07:00:00Z,29.5325,-93.8116,-2.0,25.46,11111222 
TABS,ioos:station:TABS:A:1,1996-10-04T07:30:00Z,29.5325,-93.8116,-2.0,25.44,11111222 
TABS,ioos:station:TABS:A:1,1996-10-04T08:00:00Z,29.5325,-93.8116,-2.0,25.44,11111222 
TABS,ioos:station:TABS:A:1,1996-10-04T08:30:00Z,29.5325,-93.8116,-2.0,25.46,11111222 
TABS,ioos:station:TABS:A:1,1996-10-04T09:00:00Z,29.5325,-93.8116,-2.0,25.46,11111222 
TABS,ioos:station:TABS:A:1,1996-10-04T09:30:00Z,29.5325,-93.8116,-2.0,25.4,11111222 
TABS,ioos:station:TABS:A:1,1996-10-04T10:00:00Z,29.5325,-93.8116,-2.0,25.38,11111222 
TABS,ioos:station:TABS:A:1,1996-10-04T10:30:00Z,29.5325,-93.8116,-2.0,25.38,11111222 
TABS,ioos:station:TABS:A:1,1996-10-04T11:00:00Z,29.5325,-93.8116,-2.0,25.42,11111222 
TABS,ioos:station:TABS:A:1,1996-10-04T11:30:00Z,29.5325,-93.8116,-2.0,25.42,11111222 
TABS,ioos:station:TABS:A:1,1996-10-04T12:00:00Z,29.5325,-93.8116,-2.0,25.42,11111222 
TABS,ioos:station:TABS:A:1,1996-10-04T12:30:00Z,29.5325,-93.8116,-2.0,25.4,11111222 
TABS,ioos:station:TABS:A:1,1996-10-04T13:00:00Z,29.5325,-93.8116,-2.0,25.4,11111222 
TABS,ioos:station:TABS:A:1,1996-10-04T13:30:00Z,29.5325,-93.8116,-2.0,25.42,11111222 
TABS,ioos:station:TABS:A:1,1996-10-04T14:00:00Z,29.5325,-93.8116,-2.0,25.42,11111222 
TABS,ioos:station:TABS:A:1,1996-10-04T14:30:00Z,29.5325,-93.8116,-2.0,25.4,11111222 
TABS,ioos:station:TABS:A:1,1996-10-04T15:00:00Z,29.5325,-93.8116,-2.0,25.36,11111222 
TABS,ioos:station:TABS:A:1,1996-10-04T15:30:00Z,29.5325,-93.8116,-2.0,25.32,11111222 
TABS,ioos:station:TABS:A:1,1996-10-04T16:00:00Z,29.5325,-93.8116,-2.0,25.28,11111222 
TABS,ioos:station:TABS:A:1,1996-10-04T16:30:00Z,29.5325,-93.8116,-2.0,25.26,11111222 
TABS,ioos:station:TABS:A:1,1996-10-04T17:00:00Z,29.5325,-93.8116,-2.0,25.22,11111222 
TABS,ioos:station:TABS:A:1,1996-10-04T17:30:00Z,29.5325,-93.8116,-2.0,25.22,11111222 
TABS,ioos:station:TABS:A:1,1996-10-04T18:00:00Z,29.5325,-93.8116,-2.0,25.24,11111222 
TABS,ioos:station:TABS:A:1,1996-10-04T18:30:00Z,29.5325,-93.8116,-2.0,25.28,11111222 
TABS,ioos:station:TABS:A:1,1996-10-04T19:00:00Z,29.5325,-93.8116,-2.0,25.3,11111222 
TABS,ioos:station:TABS:A:1,1996-10-04T19:30:00Z,29.5325,-93.8116,-2.0,25.28,11111222 
TABS,ioos:station:TABS:A:1,1996-10-04T20:00:00Z,29.5325,-93.8116,-2.0,25.28,11111222 
TABS,ioos:station:TABS:A:1,1996-10-04T20:30:00Z,29.5325,-93.8116,-2.0,25.28,11111222 
TABS,ioos:station:TABS:A:1,1996-10-04T21:00:00Z,29.5325,-93.8116,-2.0,25.26,11111222 
TABS,ioos:station:TABS:A:1,1996-10-04T21:30:00Z,29.5325,-93.8116,-2.0,25.26,11111222 
TABS,ioos:station:TABS:A:1,1996-10-04T22:00:00Z,29.5325,-93.8116,-2.0,25.24,11111222 
TABS,ioos:station:TABS:A:1,1996-10-04T22:30:00Z,29.5325,-93.8116,-2.0,25.18,11111222 
TABS,ioos:station:TABS:A:1,1996-10-04T23:00:00Z,29.5325,-93.8116,-2.0,25.18,11111222 
TABS,ioos:station:TABS:A:1,1996-10-04T23:30:00Z,29.5325,-93.8116,-2.0,25.2,11111222 
TABS,ioos:station:TABS:A:1,1996-10-05T00:00:00Z,29.5325,-93.8116,-2.0,25.08,11111222 
TABS,ioos:station:TABS:A:1,1996-10-05T00:30:00Z,29.5325,-93.8116,-2.0,25.12,11111222 
TABS,ioos:station:TABS:A:1,1996-10-05T01:00:00Z,29.5325,-93.8116,-2.0,25.06,11111222 
TABS,ioos:station:TABS:A:1,1996-10-05T01:30:00Z,29.5325,-93.8116,-2.0,25.0,11111222 
TABS,ioos:station:TABS:A:1,1996-10-05T02:00:00Z,29.5325,-93.8116,-2.0,24.98,11111222 
TABS,ioos:station:TABS:A:1,1996-10-05T02:30:00Z,29.5325,-93.8116,-2.0,24.96,11111222 
TABS,ioos:station:TABS:A:1,1996-10-05T03:00:00Z,29.5325,-93.8116,-2.0,24.96,11111222 
TABS,ioos:station:TABS:A:1,1996-10-05T03:30:00Z,29.5325,-93.8116,-2.0,24.98,11111222 
TABS,ioos:station:TABS:A:1,1996-10-05T04:00:00Z,29.5325,-93.8116,-2.0,24.92,11111222 
TABS,ioos:station:TABS:A:1,1996-10-05T04:30:00Z,29.5325,-93.8116,-2.0,24.92,11111222 
TABS,ioos:station:TABS:A:1,1996-10-05T05:00:00Z,29.5325,-93.8116,-2.0,24.92,11111222 
TABS,ioos:station:TABS:A:1,1996-10-05T05:30:00Z,29.5325,-93.8116,-2.0,24.9,11111222 
TABS,ioos:station:TABS:A:1,1996-10-05T06:00:00Z,29.5325,-93.8116,-2.0,24.92,11111222 
TABS,ioos:station:TABS:A:1,1996-10-05T06:30:00Z,29.5325,-93.8116,-2.0,24.94,11111222 
TABS,ioos:station:TABS:A:1,1996-10-05T07:00:00Z,29.5325,-93.8116,-2.0,24.94,11111222 
TABS,ioos:station:TABS:A:1,1996-10-05T07:30:00Z,29.5325,-93.8116,-2.0,24.92,11111222 
TABS,ioos:station:TABS:A:1,1996-10-05T08:00:00Z,29.5325,-93.8116,-2.0,24.96,11111222 
TABS,ioos:station:TABS:A:1,1996-10-05T08:30:00Z,29.5325,-93.8116,-2.0,24.98,11111222 
TABS,ioos:station:TABS:A:1,1996-10-05T09:00:00Z,29.5325,-93.8116,-2.0,24.94,11111222 
TABS,ioos:station:TABS:A:1,1996-10-05T09:30:00Z,29.5325,-93.8116,-2.0,24.98,11111222 
TABS,ioos:station:TABS:A:1,1996-10-05T10:00:00Z,29.5325,-93.8116,-2.0,24.98,11111222 
TABS,ioos:station:TABS:A:1,1996-10-05T10:30:00Z,29.5325,-93.8116,-2.0,24.96,11111222 
TABS,ioos:station:TABS:A:1,1996-10-05T11:00:00Z,29.5325,-93.8116,-2.0,24.96,11111222 
TABS,ioos:station:TABS:A:1,1996-10-05T11:30:00Z,29.5325,-93.8116,-2.0,24.96,11111222 
TABS,ioos:station:TABS:A:1,1996-10-05T12:00:00Z,29.5325,-93.8116,-2.0,24.96,11111222 
TABS,ioos:station:TABS:A:1,1996-10-05T12:30:00Z,29.5325,-93.8116,-2.0,25.0,11111222 
TABS,ioos:station:TABS:A:1,1996-10-05T13:00:00Z,29.5325,-93.8116,-2.0,25.2,11111222 
TABS,ioos:station:TABS:A:1,1996-10-05T13:30:00Z,29.5325,-93.8116,-2.0,25.22,11111222 
TABS,ioos:station:TABS:A:1,1996-10-05T14:00:00Z,29.5325,-93.8116,-2.0,25.22,11111222 
TABS,ioos:station:TABS:A:1,1996-10-05T14:30:00Z,29.5325,-93.8116,-2.0,25.2,11111222 
TABS,ioos:station:TABS:A:1,1996-10-05T15:00:00Z,29.5325,-93.8116,-2.0,25.16,11111222 
TABS,ioos:station:TABS:A:1,1996-10-05T15:30:00Z,29.5325,-93.8116,-2.0,25.1,11111222 
TABS,ioos:station:TABS:A:1,1996-10-05T16:00:00Z,29.5325,-93.8116,-2.0,25.06,11111222 
TABS,ioos:station:TABS:A:1,1996-10-05T16:30:00Z,29.5325,-93.8116,-2.0,25.06,11111222 
TABS,ioos:station:TABS:A:1,1996-10-05T17:00:00Z,29.5325,-93.8116,-2.0,25.06,11111222 
TABS,ioos:station:TABS:A:1,1996-10-05T17:30:00Z,29.5325,-93.8116,-2.0,25.06,11111222 
TABS,ioos:station:TABS:A:1,1996-10-05T18:00:00Z,29.5325,-93.8116,-2.0,25.08,11111222 
TABS,ioos:station:TABS:A:1,1996-10-05T18:30:00Z,29.5325,-93.8116,-2.0,25.1,11111222 
TABS,ioos:station:TABS:A:1,1996-10-05T19:00:00Z,29.5325,-93.8116,-2.0,25.08,11111222 
TABS,ioos:station:TABS:A:1,1996-10-05T19:30:00Z,29.5325,-93.8116,-2.0,25.1,11111222 
TABS,ioos:station:TABS:A:1,1996-10-05T20:00:00Z,29.5325,-93.8116,-2.0,25.08,11111222 
TABS,ioos:station:TABS:A:1,1996-10-05T20:30:00Z,29.5325,-93.8116,-2.0,25.06,11111222 
TABS,ioos:station:TABS:A:1,1996-10-05T21:00:00Z,29.5325,-93.8116,-2.0,25.04,11111222 
TABS,ioos:station:TABS:A:1,1996-10-05T21:30:00Z,29.5325,-93.8116,-2.0,25.02,11111222 
TABS,ioos:station:TABS:A:1,1996-10-05T22:00:00Z,29.5325,-93.8116,-2.0,25.0,11111222 
TABS,ioos:station:TABS:A:1,1996-10-05T22:30:00Z,29.5325,-93.8116,-2.0,24.98,11111222 
TABS,ioos:station:TABS:A:1,1996-10-05T23:00:00Z,29.5325,-93.8116,-2.0,24.96,11111222 
TABS,ioos:station:TABS:A:1,1996-10-05T23:30:00Z,29.5325,-93.8116,-2.0,24.94,11111222 
TABS,ioos:station:TABS:A:1,1996-10-06T00:00:00Z,29.5325,-93.8116,-2.0,24.9,11111222 
TABS,ioos:station:TABS:A:1,1996-10-06T00:30:00Z,29.5325,-93.8116,-2.0,24.86,11111222 
TABS,ioos:station:TABS:A:1,1996-10-06T01:00:00Z,29.5325,-93.8116,-2.0,24.82,11111222 
TABS,ioos:station:TABS:A:1,1996-10-06T01:30:00Z,29.5325,-93.8116,-2.0,24.78,11111222 
TABS,ioos:station:TABS:A:1,1996-10-06T02:00:00Z,29.5325,-93.8116,-2.0,24.74,11111222 
TABS,ioos:station:TABS:A:1,1996-10-06T02:30:00Z,29.5325,-93.8116,-2.0,24.7,11111222 
TABS,ioos:station:TABS:A:1,1996-10-06T03:00:00Z,29.5325,-93.8116,-2.0,24.68,11111222 
TABS,ioos:station:TABS:A:1,1996-10-06T03:30:00Z,29.5325,-93.8116,-2.0,24.64,11111222 
TABS,ioos:station:TABS:A:1,1996-10-06T04:00:00Z,29.5325,-93.8116,-2.0,24.62,11111222 
TABS,ioos:station:TABS:A:1,1996-10-06T04:30:00Z,29.5325,-93.8116,-2.0,24.6,11111222 
TABS,ioos:station:TABS:A:1,1996-10-06T05:00:00Z,29.5325,-93.8116,-2.0,24.6,11111222 
TABS,ioos:station:TABS:A:1,1996-10-06T05:30:00Z,29.5325,-93.8116,-2.0,24.58,11111222 
TABS,ioos:station:TABS:A:1,1996-10-06T06:00:00Z,29.5325,-93.8116,-2.0,24.56,11111222 
TABS,ioos:station:TABS:A:1,1996-10-06T06:30:00Z,29.5325,-93.8116,-2.0,24.56,11111222 
TABS,ioos:station:TABS:A:1,1996-10-06T07:00:00Z,29.5325,-93.8116,-2.0,24.54,11111222 
TABS,ioos:station:TABS:A:1,1996-10-06T07:30:00Z,29.5325,-93.8116,-2.0,24.52,11111222 
TABS,ioos:station:TABS:A:1,1996-10-06T08:00:00Z,29.5325,-93.8116,-2.0,24.52,11111222 
TABS,ioos:station:TABS:A:1,1996-10-06T08:30:00Z,29.5325,-93.8116,-2.0,24.52,11111222 
TABS,ioos:station:TABS:A:1,1996-10-06T09:00:00Z,29.5325,-93.8116,-2.0,24.54,11111222 
TABS,ioos:station:TABS:A:1,1996-10-06T09:30:00Z,29.5325,-93.8116,-2.0,24.52,11111222 
TABS,ioos:station:TABS:A:1,1996-10-06T10:00:00Z,29.5325,-93.8116,-2.0,24.48,11111222 
TABS,ioos:station:TABS:A:1,1996-10-06T10:30:00Z,29.5325,-93.8116,-2.0,24.5,11111222 
TABS,ioos:station:TABS:A:1,1996-10-06T11:00:00Z,29.5325,-93.8116,-2.0,24.52,11111222 
TABS,ioos:station:TABS:A:1,1996-10-06T11:30:00Z,29.5325,-93.8116,-2.0,24.48,11111222 
TABS,ioos:station:TABS:A:1,1996-10-06T12:00:00Z,29.5325,-93.8116,-2.0,24.5,11111222 
TABS,ioos:station:TABS:A:1,1996-10-06T12:30:00Z,29.5325,-93.8116,-2.0,24.48,11111222 
TABS,ioos:station:TABS:A:1,1996-10-06T13:00:00Z,29.5325,-93.8116,-2.0,24.48,11111222 
TABS,ioos:station:TABS:A:1,1996-10-06T13:30:00Z,29.5325,-93.8116,-2.0,24.44,11111222 
TABS,ioos:station:TABS:A:1,1996-10-06T14:00:00Z,29.5325,-93.8116,-2.0,24.44,11111222 
TABS,ioos:station:TABS:A:1,1996-10-06T14:30:00Z,29.5325,-93.8116,-2.0,24.44,11111222 
TABS,ioos:station:TABS:A:1,1996-10-06T15:00:00Z,29.5325,-93.8116,-2.0,24.4,11111222 
TABS,ioos:station:TABS:A:1,1996-10-06T15:30:00Z,29.5325,-93.8116,-2.0,24.38,11111222 
TABS,ioos:station:TABS:A:1,1996-10-06T16:00:00Z,29.5325,-93.8116,-2.0,24.36,11111222 
TABS,ioos:station:TABS:A:1,1996-10-06T16:30:00Z,29.5325,-93.8116,-2.0,24.36,11111222 
TABS,ioos:station:TABS:A:1,1996-10-06T17:00:00Z,29.5325,-93.8116,-2.0,24.34,11111222 
TABS,ioos:station:TABS:A:1,1996-10-06T17:30:00Z,29.5325,-93.8116,-2.0,24.34,11111222 
TABS,ioos:station:TABS:A:1,1996-10-06T18:00:00Z,29.5325,-93.8116,-2.0,24.34,11111222 
TABS,ioos:station:TABS:A:1,1996-10-06T18:30:00Z,29.5325,-93.8116,-2.0,24.34,11111222 
TABS,ioos:station:TABS:A:1,1996-10-06T19:00:00Z,29.5325,-93.8116,-2.0,24.32,11111222 
TABS,ioos:station:TABS:A:1,1996-10-06T19:30:00Z,29.5325,-93.8116,-2.0,24.32,11111222 
TABS,ioos:station:TABS:A:1,1996-10-06T20:00:00Z,29.5325,-93.8116,-2.0,24.32,11111222 
TABS,ioos:station:TABS:A:1,1996-10-06T20:30:00Z,29.5325,-93.8116,-2.0,24.3,11111222 
TABS,ioos:station:TABS:A:1,1996-10-06T21:00:00Z,29.5325,-93.8116,-2.0,24.3,11111222 
TABS,ioos:station:TABS:A:1,1996-10-06T21:30:00Z,29.5325,-93.8116,-2.0,24.3,11111222 
TABS,ioos:station:TABS:A:1,1996-10-06T22:00:00Z,29.5325,-93.8116,-2.0,24.3,11111222 
TABS,ioos:station:TABS:A:1,1996-10-06T22:30:00Z,29.5325,-93.8116,-2.0,24.3,11111222 
TABS,ioos:station:TABS:A:1,1996-10-06T23:00:00Z,29.5325,-93.8116,-2.0,24.3,11111222 
TABS,ioos:station:TABS:A:1,1996-10-06T23:30:00Z,29.5325,-93.8116,-2.0,24.3,11111222 
TABS,ioos:station:TABS:A:1,1996-10-07T00:00:00Z,29.5325,-93.8116,-2.0,24.32,11111222 
TABS,ioos:station:TABS:A:1,1996-10-07T00:30:00Z,29.5325,-93.8116,-2.0,24.38,11111222 
TABS,ioos:station:TABS:A:1,1996-10-07T01:00:00Z,29.5325,-93.8116,-2.0,24.4,11111222 
TABS,ioos:station:TABS:A:1,1996-10-07T01:30:00Z,29.5325,-93.8116,-2.0,24.4,11111222 
TABS,ioos:station:TABS:A:1,1996-10-07T02:00:00Z,29.5325,-93.8116,-2.0,24.42,11111222 
TABS,ioos:station:TABS:A:1,1996-10-07T02:30:00Z,29.5325,-93.8116,-2.0,24.4,11111222 
TABS,ioos:station:TABS:A:1,1996-10-07T03:00:00Z,29.5325,-93.8116,-2.0,24.4,11111222 
TABS,ioos:station:TABS:A:1,1996-10-07T03:30:00Z,29.5325,-93.8116,-2.0,24.38,11111222 
TABS,ioos:station:TABS:A:1,1996-10-07T04:00:00Z,29.5325,-93.8116,-2.0,24.38,11111222 
TABS,ioos:station:TABS:A:1,1996-10-07T04:30:00Z,29.5325,-93.8116,-2.0,24.38,11111222 
TABS,ioos:station:TABS:A:1,1996-10-07T05:00:00Z,29.5325,-93.8116,-2.0,24.4,11111222 
TABS,ioos:station:TABS:A:1,1996-10-07T05:30:00Z,29.5325,-93.8116,-2.0,24.4,11111222 
TABS,ioos:station:TABS:A:1,1996-10-07T06:00:00Z,29.5325,-93.8116,-2.0,24.42,11111222 
TABS,ioos:station:TABS:A:1,1996-10-07T06:30:00Z,29.5325,-93.8116,-2.0,24.42,11111222 
TABS,ioos:station:TABS:A:1,1996-10-07T07:00:00Z,29.5325,-93.8116,-2.0,24.42,11111222 
TABS,ioos:station:TABS:A:1,1996-10-07T07:30:00Z,29.5325,-93.8116,-2.0,24.4,11111222 
TABS,ioos:station:TABS:A:1,1996-10-07T08:00:00Z,29.5325,-93.8116,-2.0,24.4,11111222 
TABS,ioos:station:TABS:A:1,1996-10-07T08:30:00Z,29.5325,-93.8116,-2.0,24.4,11111222 
TABS,ioos:station:TABS:A:1,1996-10-07T09:00:00Z,29.5325,-93.8116,-2.0,24.36,11111222 
TABS,ioos:station:TABS:A:1,1996-10-07T09:30:00Z,29.5325,-93.8116,-2.0,24.38,11111222 
TABS,ioos:station:TABS:A:1,1996-10-07T10:00:00Z,29.5325,-93.8116,-2.0,24.32,11111222 
TABS,ioos:station:TABS:A:1,1996-10-07T10:30:00Z,29.5325,-93.8116,-2.0,24.3,11111222 
TABS,ioos:station:TABS:A:1,1996-10-07T11:00:00Z,29.5325,-93.8116,-2.0,24.3,11111222 
TABS,ioos:station:TABS:A:1,1996-10-07T11:30:00Z,29.5325,-93.8116,-2.0,24.28,11111222 
TABS,ioos:station:TABS:A:1,1996-10-07T12:00:00Z,29.5325,-93.8116,-2.0,24.26,11111222 
TABS,ioos:station:TABS:A:1,1996-10-07T12:30:00Z,29.5325,-93.8116,-2.0,24.26,11111222 
TABS,ioos:station:TABS:A:1,1996-10-07T13:00:00Z,29.5325,-93.8116,-2.0,24.26,11111222 
TABS,ioos:station:TABS:A:1,1996-10-07T13:30:00Z,29.5325,-93.8116,-2.0,24.26,11111222 
TABS,ioos:station:TABS:A:1,1996-10-07T14:00:00Z,29.5325,-93.8116,-2.0,24.24,11111222 
TABS,ioos:station:TABS:A:1,1996-10-07T14:30:00Z,29.5325,-93.8116,-2.0,24.22,11111222 
TABS,ioos:station:TABS:A:1,1996-10-07T15:00:00Z,29.5325,-93.8116,-2.0,24.2,11111222 
TABS,ioos:station:TABS:A:1,1996-10-07T15:30:00Z,29.5325,-93.8116,-2.0,24.22,11111222 
TABS,ioos:station:TABS:A:1,1996-10-07T16:00:00Z,29.5325,-93.8116,-2.0,24.24,11111222 
TABS,ioos:station:TABS:A:1,1996-10-07T16:30:00Z,29.5325,-93.8116,-2.0,24.24,11111222 
TABS,ioos:station:TABS:A:1,1996-10-07T17:00:00Z,29.5325,-93.8116,-2.0,24.28,11111222 
TABS,ioos:station:TABS:A:1,1996-10-07T17:30:00Z,29.5325,-93.8116,-2.0,24.3,11111222 
TABS,ioos:station:TABS:A:1,1996-10-07T18:00:00Z,29.5325,-93.8116,-2.0,24.32,11111222 
TABS,ioos:station:TABS:A:1,1996-10-07T18:30:00Z,29.5325,-93.8116,-2.0,24.3,11111222 
TABS,ioos:station:TABS:A:1,1996-10-07T19:00:00Z,29.5325,-93.8116,-2.0,24.32,11111222 
TABS,ioos:station:TABS:A:1,1996-10-07T19:30:00Z,29.5325,-93.8116,-2.0,24.4,11111222 
TABS,ioos:station:TABS:A:1,1996-10-07T20:00:00Z,29.5325,-93.8116,-2.0,24.44,11111222 
TABS,ioos:station:TABS:A:1,1996-10-07T20:30:00Z,29.5325,-93.8116,-2.0,24.46,11111222 
TABS,ioos:station:TABS:A:1,1996-10-07T21:00:00Z,29.5325,-93.8116,-2.0,24.48,11111222 
TABS,ioos:station:TABS:A:1,1996-10-07T21:30:00Z,29.5325,-93.8116,-2.0,24.52,11111222 
TABS,ioos:station:TABS:A:1,1996-10-07T22:00:00Z,29.5325,-93.8116,-2.0,24.6,11111222 
TABS,ioos:station:TABS:A:1,1996-10-07T22:30:00Z,29.5325,-93.8116,-2.0,24.62,11111222 
TABS,ioos:station:TABS:A:1,1996-10-07T23:00:00Z,29.5325,-93.8116,-2.0,24.56,11111222 
TABS,ioos:station:TABS:A:1,1996-10-07T23:30:00Z,29.5325,-93.8116,-2.0,24.56,11111222 
TABS,ioos:station:TABS:A:1,1996-10-08T00:00:00Z,29.5325,-93.8116,-2.0,24.58,11111222 
TABS,ioos:station:TABS:A:1,1996-10-08T00:30:00Z,29.5325,-93.8116,-2.0,24.48,11111222 
TABS,ioos:station:TABS:A:1,1996-10-08T01:00:00Z,29.5325,-93.8116,-2.0,24.4,11111222 
TABS,ioos:station:TABS:A:1,1996-10-08T01:30:00Z,29.5325,-93.8116,-2.0,24.34,11111222 
TABS,ioos:station:TABS:A:1,1996-10-08T02:00:00Z,29.5325,-93.8116,-2.0,24.3,11111222 
TABS,ioos:station:TABS:A:1,1996-10-08T02:30:00Z,29.5325,-93.8116,-2.0,24.32,11111222 
TABS,ioos:station:TABS:A:1,1996-10-08T03:00:00Z,29.5325,-93.8116,-2.0,24.38,11111222 
TABS,ioos:station:TABS:A:1,1996-10-08T03:30:00Z,29.5325,-93.8116,-2.0,24.36,11111222 
TABS,ioos:station:TABS:A:1,1996-10-08T04:00:00Z,29.5325,-93.8116,-2.0,24.32,11111222 
TABS,ioos:station:TABS:A:1,1996-10-08T04:30:00Z,29.5325,-93.8116,-2.0,24.34,11111222 
TABS,ioos:station:TABS:A:1,1996-10-08T05:00:00Z,29.5325,-93.8116,-2.0,24.32,11111222 
TABS,ioos:station:TABS:A:1,1996-10-08T05:30:00Z,29.5325,-93.8116,-2.0,24.3,11111222 
TABS,ioos:station:TABS:A:1,1996-10-08T06:00:00Z,29.5325,-93.8116,-2.0,24.3,11111222 
TABS,ioos:station:TABS:A:1,1996-10-08T06:30:00Z,29.5325,-93.8116,-2.0,24.28,11111222 
TABS,ioos:station:TABS:A:1,1996-10-08T07:00:00Z,29.5325,-93.8116,-2.0,24.22,11111222 
TABS,ioos:station:TABS:A:1,1996-10-08T07:30:00Z,29.5325,-93.8116,-2.0,24.2,11111222 
TABS,ioos:station:TABS:A:1,1996-10-08T08:00:00Z,29.5325,-93.8116,-2.0,24.16,11111222 